CZ-3C DEB, 42470

Orbit data source: Space-Track

CZ-3C DEB, 42470 is space debris in HEO originally from a launch on Sun, 31 Oct 2010 UTC launched from the Xichang Space Center, China (XSC). Debris objects in space refer to the collection of defunct objects orbiting the Earth. Examples of debris include non-operational satellites, rocket bodies, and fragments generated from explosions, collisions, or faulty payload assembly.

Loading next visibility...
Identifier
42470, 2010-057BK
Orbit
HEO
Country
Flag of CNCN / PRC
Related business
Manufacturer
CALT
Mission
Spacecraft
Bus & Motor
Unknown
Mass
Unknown
Launch date (UTC)
2010-10-31 (15 years ago)
Launch vehicle
Unknown
Launch site
Xichang Space Center, China (XSC)
Object type
Payload
Rocket body
Debris
Shape & HBR
Unknown shape, 0.2 m
Radar Cross Section
Medium (>0.1 m² and <1 m²)

Expand to show TLE details & history
Last TLE update: 21 hours ago

TLE from 21 hours ago
0 CZ-3C DEB
1 42470U 10057BK  25353.44855910  .00006346  00000-0  10136-1 0  9995
2 42470  21.3412 357.1534 6719138 236.2197  41.5503  2.92779163116669
Epoch: 2025-12-19T10:45Z
TLE epoch observation values (Epoch: 2025-12-19T10:45:55.506Z)
Latitude
-0.00012°
Longitude
107.38233°
Altitude
11,667.86 km
Speed
4.986 km/s
True Right ascension
23h 48m 36s
True Declination
0° 00' 00"
Sunlit
Object was in daylight at epoch
Visualization orbit readout
Latitude
Unknown
Longitude
Unknown
Altitude
Unknown
Speed
Unknown
Apparent Right ascension
Unknown
Apparent Declination
Unknown
Sunlit
N/A
Visualization observer readout
Local Sidereal Time
06:15:54
Azimuth
Unknown
Elevation
Unknown
Doppler factor
Unknown
Orbital elements
Apogee altitude
28,137.12 km
Perigee altitude
394.927 km
Semi-major axis
20,644.161 km
Eccentricity
0.67191
Inclination
21.3412°
RAAN
357.1534°
Arg. of periapsis
236.2197°
True anomaly
123.8249°
Mean anomaly
41.5503°
Eccentric anomaly
79.38993°
Mean motion
0.73172 °/min
Orbital period
491.99 mins
BSTAR
0.010136
Loading maneuver chart data...
Computing Atmospheric mass density...
Loading historical data...
Loading historical data...
Loading historical data...
Loading historical data...
Loading historical data...
Loading historical data...
Loading historical data...

Documentation

Showing up to 5 results
|